www.pogodaiklimat.ru

Погода и климат >> Архив погоды >> Россия >> Чукотка >> Островное


АРХИВ ПОГОДЫ в Островном

Время (UTC), дата Ветер
(напр.,м/с)
 
Видим.   Явления Облачность Т
(С)
Тd
(С)
f
(%)
Тe
(С)
Тes
(С)
Комфортность P
(гПа)
Po
(гПа)
Тmin
(С)
Tmax
(С)
R
(мм)
R24
(мм)
S
(см)
00 17.01 СЗ 4
{9}
20 км слаб. снег {метель} 10/5 600 м
[Sc Ac trans Cs]
-34.5 -38.8 65 -47 -47 опасность
обморожения
1027.6 1013.8
03 17.01 З 2
{9}
20 км слаб. снег 10/3 600 м
[Sc Ac trans Cs]
-35.1 -39.4 65 -43 -43 опасность
обморожения
1027.5 1013.6
06 17.01 Ю 1
{4}
20 км снежные кристаллы 10/4 600 м
[Sc Ac trans Cs]
-35.7 -40.0 64 -40 -40 опасность
обморожения
1027.2 1013.3
09 17.01 штиль 0
{2}
20 км слаб. снег 10/3 600 м
[Sc Ac trans Cs]
-35.8 -40.0 65 -36 -36 опасность
обморожения
1026.6 1012.7 -34.2 0.6
12 17.01 штиль 0
{2}
20 км слаб. снег 10/5 600 м
[Sc Ac trans Cs]
-35.8 -40.0 65 -36 -36 опасность
обморожения
1026.0 1012.2
15 17.01 З 1
{2}
20 км слаб. снег 10/4 600 м
[Sc Ac trans Cs]
-34.4 -38.8 64 -39 -39 опасность
обморожения
1024.5 1010.8
18 17.01 З 1
{3}
20 км слаб. снег 10/6 600 м
[Sc Ac trans Cs]
-34.3 -38.5 66 -39 -39 опасность
обморожения
1023.4 1009.7
21 17.01 В 1
{2}
20 км слаб. снег 10/8 600 м
[Sc Ac trans Ci fib]
-34.8 -39.1 65 -39 -39 опасность
обморожения
1023.0 1009.3 -35.8 0.7 26
00 18.01 З 1
{2}
50 км {снег} 9/9 600 м
[Sc Ci fib]
-34.0 -38.2 66 -39 -39 опасность
обморожения
1022.7 1009.0
03 18.01 штиль 0
{1}
20 км снежные кристаллы 9/8 600 м
[Sc Ci fib]
-33.6 -37.9 65 -34 -34 опасность
обморожения
1022.2 1008.5
06 18.01 Ю 2
{2}
20 км снежные кристаллы 9/6 600 м
[Sc Ac trans Ci fib]
-34.2 -38.5 65 -42 -42 опасность
обморожения
1022.4 1008.7
09 18.01 штиль 0
{2}
20 км снежные кристаллы 10/8 600 м
[Sc Ac trans Ci fib]
-35.1 -39.4 65 -35 -35 опасность
обморожения
1022.9 1009.1 -33.6 0.9
12 18.01 ЮВ 1
{2}
50 км {снег} 4/3 600 м
[Sc Ci fib]
-38.5 -42.7 64 -44 -44 опасность
обморожения
1024.3 1010.3
15 18.01 штиль 0
{2}
50 км ледяные иглы {снег} ясно -40.0 -44.8 60 -40 -40 опасность
обморожения
1024.4 1010.3
18 18.01 С 1
{1}
50 км ледяные иглы {снег} ясно -40.4 -45.3 59 -46 -46 опасность
обморожения
1025.4 1011.3
21 18.01 В 1
{3}
50 км {снег} ясно -40.7 -45.3 61 -46 -46 опасность
обморожения
1026.3 1012.2 -42.0 0.0 26
00 19.01 В 1
{2}
50 км {снег} 3/0
[Ci fib]
-41.4 -46.3 59 -47 -47 опасность
обморожения
1026.8 1012.5
03 19.01 В 1
{2}
50 км 4/1 600 м
[Sc Ac trans Ci fib]
-41.0 -45.8 60 -46 -46 опасность
обморожения
1026.8 1012.5
06 19.01 В 1
{4}
50 км 10/3 600 м
[Sc Ac trans Cs]
-39.3 -44.3 59 -44 -44 опасность
обморожения
1027.4 1013.2
09 19.01 ЮВ 1
{3}
50 км 10/3 600 м
[Sc Ac trans Cs]
-39.2 -43.8 61 -44 -44 опасность
обморожения
1028.4 1014.2 -38.8
12 19.01 В 2
{3}
50 км 10/4 600 м
[Sc Ac trans Cs]
-38.1 -43.0 60 -47 -47 опасность
обморожения
1029.1 1015.1
15 19.01 В 1
{3}
50 км 10/5 600 м
[Sc Ac trans Cs]
-36.9 -41.8 60 -42 -42 опасность
обморожения
1029.2 1015.3
18 19.01 ЮВ 2
{4}
50 км 10/5 600 м
[Sc Ac trans Cs]
-36.0 -40.4 64 -44 -44 опасность
обморожения
1028.9 1015.0
21 19.01 ЮВ 2
{5}
50 км 10/5 600 м
[Sc Ac trans Cs]
-34.3 -38.5 66 -42 -42 опасность
обморожения
1028.6 1014.8 -39.4 26
00 20.01 В 3
{5}
50 км 10/8 600 м
[Sc Ac trans Cs]
-33.1 -37.4 65 -43 -43 опасность
обморожения
1027.9 1014.1
03 20.01 В 2
{5}
50 км 9/8 600 м
[Sc Ac trans Ci fib]
-33.0 -37.4 65 -41 -41 опасность
обморожения
1027.2 1013.4
06 20.01 СВ 2
{5}
50 км 9/6 600 м
[Sc Ci fib]
-34.9 -39.1 65 -43 -43 опасность
обморожения
1026.6 1012.8
09 20.01 ЮВ 3
{6}
20 км 9/6 600 м
[Sc Ac trans Ci fib]
-33.1 -37.4 65 -43 -43 опасность
обморожения
1025.4 1011.7 -32.5
12 20.01 ЮВ 2
{7}
50 км 4/0
[Ci fib]
-32.9 -37.1 66 -41 -41 опасность
обморожения
1024.8 1011.2
15 20.01 В 3
{8}
50 км 3/0
[Ac trans Ci fib]
-30.9 -35.3 65 -41 -41 опасность
обморожения
1022.9 1009.4
18 20.01 ЮВ 4
{12}
50 км 3/0
[Ac trans Ci fib]
-29.4 -33.1 70 -40 -40 опасность
обморожения
1022.1 1008.6
21 20.01 Ю 5
{13}
50 км позёмок 3/0
[Ci fib]
-28.2 -32.0 70 -40 -40 опасность
обморожения
1022.0 1008.6 -33.2 26
00 21.01 В 4
{8}
50 км {метель} 8/4 600 м
[Sc Ac trans Ci fib]
-27.1 -30.9 70 -38 -38 опасность
обморожения
1022.5 1009.1
03 21.01 Ю 2
{8}
50 км 3/0
[Ci fib]
-26.5 -30.4 70 -33 -33 опасность
обморожения
1022.9 1009.6
06 21.01 В 1
{6}
50 км ясно -27.4 -30.4 76 -31 -31 опасность
обморожения
1023.9 1010.9
09 21.01 ЮЗ 1
{4}
50 км ясно -26.5 -29.5 76 -30 -30 1024.4 1011.1 -25.4
12 21.01 ЮВ 2
{5}
50 км 9/4 600 м
[Sc Ac trans Cs]
-25.7 -28.8 75 -32 -32 опасность
обморожения
1025.6 1012.3
15 21.01 В 2
{4}
50 км 9/6 600 м
[Sc Ac trans Cs]
-26.3 -29.4 75 -33 -33 опасность
обморожения
1025.2 1011.9
18 21.01 В 1
{4}
50 км 9/6 600 м
[Sc Ac trans Cs]
-27.0 -30.1 75 -31 -31 опасность
обморожения
1026.0 1012.7
21 21.01 В 2
{4}
50 км 9/8 600 м
[Sc Ac trans Ci fib]
-27.0 -30.1 75 -34 -34 опасность
обморожения
1026.7 1013.4 -28.4 26
00 22.01 В 1
{5}
50 км 9/8 600 м
[Sc Ac trans]
-27.4 -30.4 76 -31 -31 опасность
обморожения
1027.0 1013.5
03 22.01 ЮВ 3
{6}
50 км 8/6 600 м
[Sc Ac trans Ci fib]
-27.4 -31.2 70 -36 -36 опасность
обморожения
1026.4 1012.9
06 22.01 В 2
{4}
50 км 8/3 600 м
[Sc Ac trans Ci fib]
-27.5 -31.3 70 -35 -35 опасность
обморожения
1026.7 1013.2
09 22.01 штиль 0
{4}
50 км 10/8 600 м
[Sc Ac trans]
-28.1 -31.1 75 -28 -28 1026.4 1012.9 -26.5
12 22.01 ЮВ 1
{3}
50 км 10/5 600 м
[Sc Ac trans]
-28.9 -32.7 70 -33 -33 опасность
обморожения
1026.1 1012.6
15 22.01 штиль 0
{2}
20 км снежные кристаллы 10/3 600 м
[Sc Ac trans Cs]
-28.7 -31.8 75 -29 -29 1025.0 1011.6
18 22.01 штиль 0
{2}
50 км {снег} 10/0
[Ac trans Ci fib]
-28.7 -31.8 75 -29 -29 1025.4 1012.0
21 22.01 В 1
{3}
20 км снежные кристаллы 10/3 600 м
[Sc Ac trans Cs]
-29.2 -32.2 75 -33 -33 опасность
обморожения
1026.3 1012.7 -29.6 0.0 26
00 23.01 З 3
{7}
20 км снежные кристаллы 10/5 600 м
[Sc Ac trans Cs]
-24.5 -27.0 80 -33 -33 опасность
обморожения
1026.6 1013.4
03 23.01 СЗ 4
{7}
20 км слаб. снег 10/8 600 м
[Sc Ac trans Cs]
-24.2 -26.6 80 -34 -34 опасность
обморожения
1026.8 1013.6
06 23.01 З 3
{7}
20 км слаб. снег 10/8 600 м
[Sc Ac trans Cs]
-23.4 -26.6 75 -32 -32 опасность
обморожения
1027.6 1014.4
09 23.01 СЗ 3
{7}
20 км слаб. снег 10/8 600 м
[Sc As op]
-23.5 -26.7 75 -32 -32 опасность
обморожения
1028.4 1015.2 -23.3 0.3
12 23.01 СЗ 3
{7}
20 км слаб. снег 10/8 600 м
[Sc As op]
-24.1 -27.3 75 -33 -33 опасность
обморожения
1028.6 1015.4
15 23.01 СЗ 3
{7}
20 км слаб. снег 10/6 600 м
[Sc As op]
-24.6 -27.0 80 -33 -33 опасность
обморожения
1028.4 1015.2
18 23.01 СЗ 3
{7}
20 км слаб. снег 10/6 600 м
[Sc Ac trans Cs]
-24.7 -27.1 80 -33 -33 опасность
обморожения
1028.3 1015.1
21 23.01 СЗ 3
{6}
20 км слаб. снег 10/5 600 м
[Sc Ac trans Cs]
-24.8 -27.3 80 -33 -33 опасность
обморожения
1028.3 1015.1 -24.8 0.4 27

 

Местоположение метеостанции Островное (Чукотка, Россия): широта 68.12 долгота 164.10 высота над уровнем моря 94 м.

В архиве по умолчанию представлена погода в Островном за последнюю неделю. Архивные данные за месяц целиком и за предыдущие месяцы, начиная с января 2011 года, Вы можете получить, выбрав интересующий диапазон дат из раскрывающегося списка и нажав кнопку "Ввод!".


*Определитесь, кто Вы:
робот инопланетянин человек

Внимание! Время в таблицах - всемирное. Для получения местного времени необходимо прибавить поправку, которая равна 12 ч.

Смотрите также архив погоды в соседних городах и на ближайших метеорологических станциях:

Погода в Билибино (Чукотка, Россия) (96 км)
Погода в Анюйске (Чукотка, Россия) (110 км)
Погода в Константиновской (Чукотка, Россия) (124 км)
Погода в Черском (Якутия, Россия) (133 км)
Погода в Баимке (Чукотка, Россия) (177 км)
Погода в Раучуе (Чукотка, Россия) (181 км)
Погода в Бухте Амбарчик (Чукотка, Россия) (182 км)
Погода в Илирнее (Чукотка, Россия) (187 км)
Погода в Колымской (Якутия, Россия) (235 км)
Погода на Айон Острове (Чукотка, Россия) (252 км)

Пояснения к столбцам:

Ветер - указаны скорость ветра в м/с - средняя за 10 мин, порывы в срок и между сроками (в фигурных скобках) и направление, откуда дует ветер: С - северный, СВ - северо-восточный, В - восточный, ЮВ - юго-восточный, Ю - южный, ЮЗ - юго-западный, З - западный, СЗ - северо-западный.
Видимость - горизонтальная дальность видимости в метрах или километрах. При видимости от 1 до 10 км при отсутствии осадков обычно наблюдается дымка, при ухудшении видимости до 1 км и менее - туман. В сухую погоду видимость может ухудшаться дымом, пылью или мглою.
Явления - указаны атмосферные явления, наблюдавшиеся в срок или в последний час перед сроком; фигурными скобками обозначены явления, наблюдавшиеся между сроками (за 1-3 часа до срока); квадратными скобками обозначены град или гололедные отложения с указанием их диаметра в мм.
Облачность - указаны через наклонную черту общая и нижняя облачность в баллах и высота нижней границы облаков в метрах; квадратными скобками обозначены формы облаков: Ci - перистые, Cs - перисто-слоистые, Cc - перисто-кучевые, Ac - высококучевые, As - высокослоистые, Sc - слоисто-кучевые, Ns - слоисто-дождевые, Cu - кучевые, Cb - кучево-дождевые. Подробнее классификацию облаков см. в Атласе облаков (PDF).
T - Температура воздуха - температура, измеренная на высоте 2 м над землей.
Td - Температура точки росы - температура, при понижении до которой содержащийся в воздухе водяной пар достигнет насыщения.
f - Относительная влажность воздуха - влажноcть воздуха, измеренная на высоте 2 м над землей.
Te - Эффективная температура - температура, которую ощущает одетый по сезону человек в тени. Характеристика душности погоды. При расчете учитывается влияние влажности воздуха и скорости ветра на теплоощущения человека.
Tes - Эффективная температура на солнце - температура, которую ощущает человек, с поправкой на солнечный нагрев. Характеристика знойности погоды. Зависит от высоты солнца над горизонтом, облачности и скорости ветра. Ночью, в пасмурную погоду, а также при ветре 12 м/с и более поправка равна нулю.
P - Атмосферное давление - приведенное к уровню моря атмосферное давление.
Po - Атмосферное давление - измеренное на уровне метеостанции атмосферное давление.
Tmin - Минимальная температура - минимум температуры воздуха на высоте 2 м над землей.
Tmax - Максимальная температура - максимум температуры воздуха на высоте 2 м над землей.
R - Количество осадков - Количество выпавших осадков за период времени, мм. При наведении курсора мыши на число - период времени, за который выпало указанное количество осадков.
R24 - Количество осадков - Количество выпавших осадков за 24 часа, мм.
S - Снежный покров - Высота снежного покрова, см. При наведении курсора мыши на число - состояние снежного покрова и степень покрытия местности в баллах.